TimeCDT,TemperatureF,Dew PointF,Humidity,Sea Level PressureIn,VisibilityMPH,Wind Direction,Wind SpeedMPH,Gust SpeedMPH,PrecipitationIn,Events,Conditions,WindDirDegrees,DateUTC
12:53 AM,66.0,53.1,63,29.81,10.0,South,11.5,16.1,N/A,,Mostly Cloudy,170,2013-09-24 05:53:00
1:53 AM,64.0,54.0,70,29.81,10.0,SSE,10.4,-,N/A,,Clear,160,2013-09-24 06:53:00
2:53 AM,64.0,54.0,70,29.80,10.0,SSE,6.9,-,N/A,,Clear,150,2013-09-24 07:53:00
3:53 AM,64.0,54.0,70,29.79,10.0,SSE,9.2,-,N/A,,Mostly Cloudy,160,2013-09-24 08:53:00
4:53 AM,63.0,54.0,72,29.78,10.0,SSE,8.1,17.3,N/A,,Clear,160,2013-09-24 09:53:00
5:53 AM,63.0,54.0,72,29.78,10.0,South,10.4,17.3,N/A,,Clear,170,2013-09-24 10:53:00
6:53 AM,63.0,54.0,72,29.78,10.0,South,8.1,-,N/A,,Clear,190,2013-09-24 11:53:00
7:53 AM,63.0,54.0,72,29.78,10.0,South,12.7,-,N/A,,Clear,190,2013-09-24 12:53:00
8:53 AM,63.0,55.0,75,29.78,10.0,SSW,8.1,-,N/A,,Clear,210,2013-09-24 13:53:00
9:53 AM,66.0,55.0,68,29.79,10.0,WSW,9.2,-,N/A,,Clear,250,2013-09-24 14:53:00
10:53 AM,69.1,55.9,63,29.79,10.0,WSW,10.4,-,N/A,,Clear,250,2013-09-24 15:53:00
11:33 AM,69.8,55.4,60,29.82,10.0,West,10.4,-,N/A,,Mostly Cloudy,260,2013-09-24 16:33:00
11:53 AM,69.1,55.0,61,29.81,10.0,SW,10.4,17.3,N/A,,Overcast,220,2013-09-24 16:53:00
12:24 PM,66.2,55.4,68,29.83,10.0,WSW,6.9,-,N/A,,Overcast,250,2013-09-24 17:24:00
12:35 PM,66.2,55.4,68,29.83,10.0,WSW,9.2,-,N/A,,Overcast,250,2013-09-24 17:35:00
12:53 PM,66.9,55.9,68,29.81,10.0,WSW,10.4,-,N/A,,Overcast,250,2013-09-24 17:53:00
1:14 PM,66.2,55.4,68,29.84,10.0,West,3.5,-,N/A,,Overcast,280,2013-09-24 18:14:00
1:29 PM,66.2,55.4,68,29.84,10.0,West,4.6,-,N/A,,Overcast,260,2013-09-24 18:29:00
1:53 PM,66.9,55.9,68,29.82,10.0,West,3.5,-,N/A,,Overcast,270,2013-09-24 18:53:00
2:53 PM,66.9,55.9,68,29.82,10.0,WSW,4.6,-,N/A,,Overcast,240,2013-09-24 19:53:00
3:46 PM,64.4,57.2,77,29.84,7.0,Calm,Calm,-,0.00,Rain,Light Rain,0,2013-09-24 20:46:00
3:53 PM,64.0,57.9,80,29.83,8.0,NW,3.5,-,0.00,Rain,Light Rain,320,2013-09-24 20:53:00
4:02 PM,64.4,59.0,83,29.84,10.0,Calm,Calm,-,0.00,,Overcast,0,2013-09-24 21:02:00
4:53 PM,64.9,59.0,81,29.83,10.0,WSW,3.5,-,0.00,,Overcast,240,2013-09-24 21:53:00
5:53 PM,66.0,59.0,78,29.83,10.0,NW,3.5,-,N/A,,Overcast,320,2013-09-24 22:53:00
6:53 PM,64.0,57.9,80,29.83,10.0,NW,4.6,-,N/A,,Clear,310,2013-09-24 23:53:00
7:53 PM,62.1,55.9,80,29.84,10.0,Calm,Calm,-,N/A,,Scattered Clouds,0,2013-09-25 00:53:00
8:53 PM,62.1,57.9,86,29.84,10.0,Calm,Calm,-,N/A,,Clear,0,2013-09-25 01:53:00
9:53 PM,59.0,55.9,90,29.84,10.0,WSW,3.5,-,N/A,,Clear,250,2013-09-25 02:53:00
10:53 PM,60.1,57.0,90,29.84,10.0,Calm,Calm,-,N/A,,Clear,0,2013-09-25 03:53:00
11:53 PM,57.9,55.0,90,29.85,9.0,West,4.6,-,N/A,,Clear,260,2013-09-25 04:53:00